Snowfall_Accumulation
0.0 0.0 0.0 0.0 0.0 0.0 0.0 0.0 0.0 0.0 0.0 0.0 0.0 0.0 0.0 0.0 0.0 0.0 0.0 0.0 0.0 0.0
0.0 0.0 0.0 0.0 0.0 0.0 0.0 0.0 0.0 0.0 0.0 0.0 0.0 0.0 0.0 0.0 0.0 0.0 0.0 0.0 0.0 0.0
0.0 0.0 0.0 0.0 0.0 0.0 0.0 0.0 0.0 0.0 0.0 0.0 0.0 0.0 0.0 0.0 0.0 0.0 0.0 0.0 0.0 0.0
0.0 0.0 0.0 0.0 0.0 0.0 0.0 0.0 0.0 0.0 0.0 0.0 0.0 0.0 0.0 0.0 0.0 0.0 0.0 0.0 0.0 0.0
0.0 0.0 0.0 0.0 0.0 0.0 0.0 0.0 0.0 0.0 0.0 0.0 0.0 0.0 0.0 0.0 0.0 0.0 0.0 0.0 0.0 0.0
0.0 0.0 0.0 0.0 0.0 0.0 0.0 0.0 0.0 0.0 0.0 0.0 0.0 0.0 0.0 0.0 0.0 0.0 0.0 0.0 0.0 0.1
0.4 0.2 0.0 0.0 0.0 0.0 0.0 0.0 0.2 0.2 0.0 0.0 0.0 0.0 0.4 0.2 0.2 0.0 0.0 0.0 0.0 0.1
0.0 1.3 1.0 1.8 0.0 0.0 0.0 1.0 1.0 0.5 1.6 1.1 0.6 0.0 0.0 0.0 0.0 0.0 0.0 0.0 0.0 0.0
1.8 1.7 1.4 1.7 0.8 0.8 1.1 0.8 1.0 0.7 0.4 0.3 0.3 0.2 0.1 0.0 0.0 0.0 0.0 0.0 0.0 0.0
1.6 1.9 1.5 1.4 1.2 1.1 1.3 1.1 0.9 0.6 0.2 0.2 0.8 0.2 0.0 0.0 0.0 0.1 0.0 0.0 0.0 0.0
1.2 1.0 0.9 0.9 0.9 0.6 0.9 1.1 1.0 0.5 0.5 1.2 0.4 0.1 0.0 0.1 0.1 0.1 0.0 0.0 0.0 0.0
1.0 2.1 1.4 0.7 1.8 1.3 1.3 1.3 1.0 0.7 1.2 1.1 0.3 0.0 0.1 0.1 0.1 0.1 0.0 0.0 0.0 0.0
3.3 3.8 3.4 3.0 2.4 1.7 1.4 1.3 0.8 0.8 1.4 0.8 0.2 0.0 0.0 0.0 0.0 0.0 0.0 0.0 0.0 0.0
5.2 4.6 4.1 3.5 2.6 2.0 1.7 1.5 1.2 1.0 1.4 0.5 0.1 0.0 0.0 0.0 0.0 0.1 0.0 0.1 0.0 0.0